Temp
2 2 2 2 2 2 2 1 1 1 1 0 0 -0 -1 -3 -4 -4 -4 -3 -2 -2 -0 2 1 1 1 2 3 3 4 5 4 4 3 3 5 6 7 7 7 7 7
2 2 2 1 1 1 1 1 1 1 0 -0 -0 -1 -1 -3 -4 -4 -4 -4 -3 -2 -1 0 2 0 0 1 0 2 4 4 4 4 4 4 4 5 6 7 7 7 7
2 1 2 1 0 0 1 0 0 -0 -0 -0 -1 -1 -1 -1 -2 -3 -4 -4 -3 -2 -2 -1 1 1 0 0 -0 -0 2 2 3 4 3 3 4 5 6 7 7 7 7
1 1 1 0 -0 -0 -1 -0 -1 -1 -1 -1 -1 -1 -1 -1 -1 -2 -3 -4 -4 -3 -3 -2 -1 2 1 -0 -0 -1 -0 1 2 3 3 3 3 4 5 6 7 7 7
0 0 -0 -0 -0 -1 -1 -1 -1 -1 -2 -2 -2 -2 -1 -2 -1 -2 -3 -3 -4 -3 -3 -3 -1 -0 3 1 0 0 -1 -0 0 1 3 3 3 4 4 5 6 7 7
0 -0 -1 -1 -1 -1 -2 -2 -2 -2 -2 -2 -2 -2 -2 -2 -2 -2 -2 -3 -3 -4 -3 -3 -3 -1 0 2 1 -0 0 -1 -0 -0 1 3 3 4 4 4 5 6 6
-0 -1 -2 -2 -2 -2 -2 -2 -3 -3 -3 -3 -3 -3 -3 -3 -2 -2 -2 -2 -3 -3 -4 -3 -3 -3 -1 0 1 0 0 0 -0 -1 -0 0 3 3 4 4 4 4 5
-1 -1 -2 -3 -3 -3 -3 -2 -3 -3 -4 -4 -3 -3 -4 -4 -3 -2 -3 -2 -2 -3 -3 -4 -4 -4 -2 -0 0 -0 0 0 -1 -0 -0 -0 0 3 3 4 3 3 4
-1 -2 -3 -4 -4 -4 -3 -3 -3 -4 -4 -4 -4 -4 -4 -4 -4 -4 -3 -3 -2 -2 -3 -3 -4 -4 -4 -2 -1 -1 -0 0 0 -1 -0 -0 0 0 2 2 3 3 3
-2 -3 -3 -4 -4 -4 -4 -4 -4 -4 -4 -4 -4 -5 -5 -5 -5 -5 -4 -3 -3 -3 -3 -3 -4 -4 -4 -4 -2 -1 -1 1 0 -1 -1 -1 -0 0 1 1 2 3 3
-2 -3 -4 -4 -4 -4 -4 -4 -4 -4 -4 -5 -5 -5 -5 -5 -5 -5 -5 -4 -4 -4 -4 -4 -4 -4 -5 -4 -4 -2 -3 -2 -1 -1 -1 -1 -0 -0 0 2 2 2 3
-3 -4 -5 -5 -5 -5 -5 -5 -5 -5 -5 -5 -5 -5 -6 -6 -6 -6 -5 -5 -5 -5 -4 -4 -4 -4 -5 -5 -4 -3 -3 -3 -2 -3 -2 -1 0 -0 -0 1 1 1 2
-5 -4 -4 -5 -5 -5 -5 -5 -5 -5 -6 -6 -6 -6 -6 -6 -6 -6 -6 -6 -6 -5 -5 -5 -5 -5 -5 -5 -5 -4 -4 -3 -3 -3 -3 -2 1 -0 -0 -0 1 1 2
-4 -4 -4 -5 -5 -5 -5 -5 -6 -6 -6 -6 -6 -6 -7 -7 -7 -7 -7 -7 -7 -6 -6 -6 -6 -5 -5 -5 -6 -5 -4 -4 -4 -4 -3 -2 -2 -1 1 1 1 1 2
-4 -4 -4 -5 -5 -5 -5 -6 -6 -6 -6 -6 -7 -7 -7 -8 -8 -8 -8 -8 -8 -7 -7 -7 -7 -6 -6 -6 -6 -6 -5 -4 -4 -4 -4 -3 -3 -1 0 3 0 0 1
-3 -4 -5 -5 -5 -5 -6 -6 -6 -6 -7 -7 -8 -8 -8 -9 -9 -9 -9 -9 -8 -8 -8 -8 -8 -7 -7 -7 -7 -7 -6 -5 -4 -4 -4 -4 -3 -2 -1 0 0 0 0
-4 -4 -5 -5 -6 -6 -7 -7 -7 -8 -8 -8 -8 -8 -9 -10 -10 -10 -9 -9 -9 -9 -9 -9 -9 -8 -8 -7 -8 -7 -7 -6 -5 -5 -5 -5 -4 -3 -2 -2 -0 -1 0
-4 -5 -5 -6 -6 -7 -7 -8 -8 -8 -8 -8 -9 -9 -10 -11 -11 -11 -10 -10 -9 -10 -10 -10 -10 -9 -9 -9 -9 -8 -8 -7 -6 -6 -6 -5 -4 -4 -3 -2 -1 -1 0
-5 -5 -6 -6 -7 -7 -8 -8 -8 -9 -9 -9 -10 -10 -11 -12 -12 -12 -12 -11 -10 -11 -11 -11 -11 -10 -10 -10 -10 -9 -9 -8 -7 -7 -6 -6 -5 -6 -4 -3 -1 -0 0
-6 -6 -7 -7 -8 -8 -8 -9 -9 -9 -10 -10 -11 -11 -12 -13 -13 -13 -13 -13 -12 -12 -12 -11 -11 -11 -11 -11 -10 -10 -10 -9 -8 -7 -7 -7 -6 -5 -6 -4 -3 -1 -0
-8 -8 -8 -8 -9 -9 -10 -10 -10 -11 -11 -11 -12 -12 -13 -13 -14 -14 -14 -14 -13 -13 -13 -12 -12 -12 -12 -12 -12 -11 -11 -11 -9 -8 -7 -7 -7 -6 -6 -5 -3 -2 -1
-8 -9 -9 -9 -9 -10 -11 -11 -12 -12 -12 -13 -13 -13 -14 -14 -15 -15 -15 -15 -14 -14 -14 -13 -13 -12 -13 -13 -12 -12 -12 -12 -11 -10 -9 -8 -8 -7 -5 -6 -4 -3 -2
-9 -9 -9 -10 -10 -11 -11 -12 -12 -13 -13 -14 -14 -14 -15 -15 -16 -16 -16 -15 -15 -15 -15 -14 -14 -14 -13 -13 -13 -13 -13 -13 -13 -11 -10 -8 -9 -7 -7 -6 -5 -3 -3
-10 -10 -11 -11 -11 -12 -12 -12 -13 -14 -15 -15 -15 -15 -16 -16 -17 -16 -16 -16 -16 -16 -16 -15 -15 -15 -14 -14 -14 -14 -14 -14 -14 -12 -11 -10 -9 -8 -7 -5 -6 -4 -3
-12 -12 -12 -13 -13 -13 -13 -14 -14 -15 -16 -16 -16 -17 -17 -17 -17 -18 -17 -18 -18 -17 -17 -17 -16 -16 -15 -15 -15 -15 -15 -15 -15 -14 -12 -11 -10 -8 -7 -6 -6 -5 -3
-13 -13 -14 -14 -14 -14 -15 -15 -16 -16 -17 -17 -17 -18 -18 -18 -18 -18 -18 -19 -19 -18 -18 -18 -18 -17 -17 -16 -16 -16 -16 -16 -16 -15 -13 -12 -11 -9 -8 -8 -6 -6 -5
Height
3119 3118 3118 3116 3114 3113 3111 3109 3106 3105 3103 3100 3098 3096 3094 3090 3088 3087 3087 3088 3089 3090 3091 3095 3101 3107 3112 3115 3116 3122 3127 3137 3143 3147 3150 3154 3157 3160 3164 3169 3172 3176 3180
3115 3115 3114 3112 3110 3109 3107 3105 3103 3101 3099 3097 3094 3091 3088 3086 3084 3083 3082 3084 3084 3085 3085 3088 3094 3100 3104 3111 3112 3113 3117 3128 3132 3138 3146 3147 3150 3152 3158 3162 3167 3172 3175
3111 3111 3110 3108 3106 3105 3103 3101 3098 3096 3094 3093 3091 3087 3085 3082 3080 3079 3079 3079 3079 3081 3081 3085 3085 3094 3097 3104 3103 3106 3111 3115 3118 3126 3135 3136 3141 3151 3151 3157 3162 3166 3170
3107 3107 3104 3102 3101 3099 3097 3095 3093 3091 3089 3088 3086 3085 3083 3079 3076 3074 3073 3072 3073 3074 3076 3077 3080 3082 3091 3096 3097 3099 3102 3105 3111 3115 3124 3133 3139 3141 3146 3150 3155 3160 3164
3101 3101 3100 3098 3096 3094 3093 3090 3088 3086 3084 3082 3081 3079 3077 3075 3073 3070 3068 3067 3067 3068 3069 3070 3074 3075 3079 3087 3090 3094 3097 3099 3103 3108 3113 3122 3130 3133 3137 3143 3148 3151 3158
3095 3095 3095 3093 3091 3089 3087 3084 3082 3080 3079 3077 3076 3075 3073 3071 3069 3066 3064 3062 3061 3062 3062 3063 3065 3068 3071 3072 3082 3089 3091 3092 3093 3100 3104 3110 3117 3125 3133 3138 3141 3146 3150
3090 3090 3089 3087 3085 3082 3080 3078 3077 3075 3074 3072 3070 3069 3068 3066 3064 3062 3060 3058 3056 3055 3055 3055 3059 3062 3062 3065 3069 3077 3084 3086 3087 3090 3094 3100 3107 3117 3122 3128 3132 3136 3142
3085 3084 3083 3080 3078 3076 3074 3072 3071 3069 3067 3066 3065 3063 3062 3061 3060 3057 3055 3054 3052 3049 3049 3050 3049 3053 3055 3056 3060 3066 3070 3081 3080 3082 3084 3089 3095 3103 3113 3119 3124 3128 3133
3078 3078 3076 3074 3072 3071 3069 3067 3065 3063 3061 3059 3058 3057 3056 3055 3054 3052 3050 3048 3046 3044 3043 3042 3044 3045 3047 3050 3050 3054 3060 3063 3068 3072 3076 3082 3087 3089 3098 3105 3112 3119 3122
3072 3071 3069 3067 3065 3063 3062 3061 3059 3057 3055 3053 3052 3050 3049 3048 3046 3046 3045 3043 3041 3039 3037 3036 3035 3037 3038 3040 3042 3042 3044 3047 3055 3059 3067 3074 3079 3082 3085 3092 3098 3105 3111
3064 3063 3061 3059 3057 3055 3055 3054 3052 3051 3049 3047 3045 3043 3041 3040 3039 3038 3038 3037 3033 3032 3030 3028 3028 3026 3027 3030 3032 3031 3033 3036 3042 3046 3052 3061 3070 3072 3078 3082 3086 3092 3099
3055 3054 3053 3052 3049 3048 3047 3046 3044 3043 3041 3040 3038 3036 3034 3033 3031 3030 3029 3027 3027 3024 3021 3020 3019 3018 3018 3019 3021 3024 3024 3026 3029 3032 3038 3047 3056 3063 3068 3071 3076 3080 3086
3046 3044 3042 3042 3041 3039 3038 3037 3036 3034 3033 3032 3030 3028 3026 3025 3023 3021 3020 3018 3016 3015 3013 3011 3011 3009 3008 3009 3010 3013 3015 3016 3016 3021 3027 3035 3041 3050 3058 3063 3067 3072 3077
3035 3033 3031 3031 3031 3030 3029 3028 3027 3025 3024 3022 3021 3019 3017 3015 3013 3012 3010 3009 3008 3006 3004 3003 3002 3001 3000 3000 2999 2999 3003 3004 3007 3010 3015 3021 3027 3037 3043 3051 3057 3060 3064
3022 3021 3021 3021 3021 3020 3019 3019 3018 3016 3014 3013 3011 3009 3007 3005 3004 3002 3001 2999 2997 2997 2995 2994 2992 2991 2990 2988 2988 2989 2991 2992 2995 2998 3004 3009 3014 3021 3027 3035 3045 3049 3053
3012 3011 3010 3010 3010 3010 3009 3009 3008 3006 3004 3003 3001 2998 2997 2995 2993 2992 2991 2990 2988 2987 2985 2983 2980 2980 2978 2977 2976 2976 2978 2980 2982 2986 2991 2994 3001 3003 3012 3021 3031 3039 3043
3002 3001 3001 3000 2999 2999 2998 2997 2997 2995 2993 2991 2989 2987 2985 2983 2982 2980 2979 2979 2977 2976 2974 2971 2970 2969 2968 2965 2964 2963 2964 2967 2969 2972 2975 2981 2987 2992 2997 3007 3014 3025 3032
2992 2991 2990 2989 2988 2987 2986 2985 2984 2983 2982 2980 2978 2976 2975 2973 2971 2970 2967 2967 2966 2964 2963 2961 2959 2958 2957 2955 2952 2951 2952 2953 2956 2959 2961 2967 2975 2979 2984 2992 2999 3008 3020
2980 2979 2979 2979 2977 2975 2974 2973 2973 2972 2971 2969 2967 2965 2963 2962 2960 2958 2956 2954 2954 2953 2952 2950 2948 2947 2946 2943 2941 2939 2938 2940 2943 2945 2949 2952 2959 2965 2970 2977 2981 2989 3003
2967 2967 2967 2967 2966 2965 2963 2962 2960 2959 2958 2957 2955 2953 2952 2951 2949 2947 2945 2944 2942 2940 2939 2938 2936 2935 2934 2931 2929 2927 2925 2926 2930 2931 2934 2939 2944 2950 2954 2959 2967 2975 2991
2956 2956 2954 2953 2951 2951 2950 2949 2948 2947 2945 2945 2944 2943 2941 2940 2937 2935 2932 2931 2929 2928 2926 2926 2925 2923 2921 2920 2917 2915 2914 2912 2914 2917 2921 2924 2930 2934 2940 2944 2951 2960 2975
2942 2942 2941 2940 2939 2937 2936 2935 2935 2932 2932 2931 2930 2929 2928 2927 2925 2922 2921 2918 2916 2914 2913 2912 2912 2911 2910 2907 2905 2904 2902 2901 2900 2902 2906 2909 2914 2919 2925 2930 2939 2950 2959
2928 2928 2928 2926 2924 2922 2921 2920 2919 2919 2918 2918 2917 2917 2916 2914 2912 2909 2908 2905 2903 2901 2900 2898 2898 2897 2896 2895 2894 2891 2889 2888 2888 2889 2891 2895 2900 2907 2910 2918 2926 2935 2942
2913 2914 2913 2911 2909 2906 2905 2904 2904 2904 2904 2903 2903 2902 2901 2899 2897 2895 2893 2891 2890 2888 2886 2884 2883 2882 2881 2881 2880 2879 2876 2875 2875 2876 2877 2880 2885 2891 2898 2904 2913 2918 2928
2898 2897 2895 2895 2893 2892 2891 2890 2891 2891 2891 2891 2890 2889 2887 2885 2883 2881 2879 2877 2877 2874 2871 2870 2869 2867 2866 2867 2866 2864 2863 2862 2862 2863 2863 2867 2871 2877 2883 2889 2898 2904 2915
2882 2880 2879 2879 2879 2879 2879 2879 2878 2877 2877 2876 2875 2873 2871 2869 2868 2866 2866 2864 2861 2859 2858 2857 2854 2851 2850 2849 2850 2850 2849 2848 2848 2849 2849 2852 2858 2863 2868 2874 2884 2889 2898
Wind_Speed
11 17 18 18 18 19 20 21 23 24 25 24 25 22 22 25 23 21 20 18 20 19 18 37 53 37 25 26 27 35 51 43 46 41 39 36 36 33 33 33 31 29 26
12 16 19 18 17 20 20 21 22 23 24 25 23 22 20 22 23 21 22 21 20 22 17 21 40 50 32 31 15 22 43 46 45 48 42 39 41 39 35 34 32 31 29
13 15 19 18 17 20 21 22 22 23 24 23 24 24 22 20 21 24 24 24 23 22 20 19 21 54 48 46 25 15 29 47 49 48 49 49 43 38 36 33 31 31 30
14 14 18 18 18 21 23 23 22 23 25 24 23 23 21 20 21 22 25 26 24 25 24 21 21 33 52 43 38 23 13 30 47 49 51 46 44 41 39 34 32 30 29
14 15 18 18 22 25 24 24 24 24 25 25 24 24 24 22 20 20 22 25 26 25 27 24 23 23 38 55 50 38 32 15 30 49 50 47 47 43 46 37 33 32 28
15 17 16 21 26 27 26 25 24 25 25 25 25 24 23 23 21 20 20 22 25 27 26 25 23 23 27 34 56 59 34 24 23 32 49 53 51 47 40 40 37 32 28
15 18 20 27 26 27 28 27 26 25 25 26 27 26 24 23 25 21 21 21 23 25 26 26 26 24 27 29 42 53 56 39 24 14 38 50 51 49 46 42 44 39 34
17 17 24 30 26 26 27 29 29 28 28 28 28 29 28 25 24 27 24 24 23 24 27 28 28 26 26 30 33 49 50 60 39 27 28 35 42 51 53 49 47 43 40
20 19 27 30 30 29 28 29 30 30 31 31 30 29 28 27 26 25 28 27 26 26 25 29 31 31 27 29 34 36 62 58 54 47 38 40 31 36 53 48 45 46 44
21 21 28 35 37 34 31 30 29 31 32 33 32 31 30 30 29 27 26 29 29 28 29 28 31 33 33 31 34 38 38 58 75 76 74 57 52 44 45 45 48 45 46
26 31 34 40 37 34 31 31 30 31 32 33 33 33 33 33 32 31 30 28 31 31 30 30 31 33 35 35 35 37 38 43 52 56 69 71 60 50 43 49 41 45 45
33 38 40 34 33 33 33 31 31 32 32 33 34 35 34 34 34 33 32 33 31 33 32 32 32 32 34 37 37 37 41 41 46 54 57 58 61 61 43 44 43 42 46
39 39 37 33 33 33 34 32 33 33 34 34 35 37 36 36 35 36 35 35 35 32 33 32 33 33 34 36 40 40 41 44 45 51 62 61 68 69 58 52 43 46 50
37 40 38 33 30 31 32 32 34 35 35 36 38 39 38 37 37 37 37 35 36 35 33 32 32 33 34 35 38 42 42 43 47 47 60 59 62 63 54 54 57 41 46
39 36 33 31 32 34 34 35 36 36 36 38 40 40 39 38 38 39 37 35 35 36 35 33 32 32 35 35 37 41 44 45 45 48 50 63 58 56 55 52 54 44 41
37 36 35 35 35 35 35 37 35 37 40 39 40 40 40 39 40 39 37 36 36 37 37 35 34 34 33 36 37 39 44 47 48 49 49 63 54 56 60 58 59 52 47
35 37 37 37 36 35 36 35 36 39 40 39 39 41 42 39 41 40 38 38 39 39 39 38 36 36 35 36 37 39 43 48 50 51 50 51 64 51 54 61 57 46 53
36 39 38 35 36 37 38 38 39 40 40 40 41 42 42 41 42 41 40 40 42 42 42 40 39 39 36 37 38 40 43 47 50 51 52 52 57 58 51 57 56 51 56
30 34 34 35 36 38 40 42 43 42 41 41 42 43 43 44 44 43 42 41 42 41 42 42 41 41 39 38 39 41 42 46 50 53 55 49 49 66 49 53 61 59 54
34 33 36 37 38 36 39 42 43 42 41 42 42 43 44 46 46 46 45 44 42 41 41 41 42 43 42 39 39 41 43 46 49 53 55 54 51 58 65 48 52 61 59
33 36 38 38 40 41 41 44 43 41 42 43 43 45 45 46 48 46 45 46 44 43 42 42 42 44 42 41 40 40 42 45 48 51 55 55 53 55 64 58 54 60 60
35 40 43 45 46 45 46 46 43 42 41 42 44 47 47 47 48 47 46 46 45 44 44 44 43 45 43 41 42 40 41 43 48 50 51 54 54 55 57 67 55 65 60
34 40 47 51 51 49 47 47 44 42 43 43 45 48 47 48 49 48 47 46 45 44 45 46 47 46 44 41 41 42 41 43 46 48 50 53 53 55 56 70 57 59 57
38 44 52 56 53 49 48 46 42 42 43 44 47 48 50 50 48 47 47 46 45 46 46 48 49 49 47 42 41 42 42 43 45 48 48 51 53 53 56 62 63 60 58
45 50 54 55 50 44 44 42 42 43 44 45 48 50 52 51 49 47 46 45 45 48 48 48 50 51 50 43 41 42 42 43 43 47 49 49 51 52 56 57 69 61 62
48 49 46 42 40 39 39 40 41 44 46 48 48 49 49 49 47 46 46 47 49 47 47 49 50 51 49 46 42 41 40 41 41 44 49 48 49 50 56 54 71 54 54
Wind_Direction
299 306 309 308 308 312 313 316 320 323 326 330 328 325 310 295 299 297 285 277 276 270 271 256 234 220 230 209 196 206 216 221 225 229 228 234 234 233 232 233 231 231 234
284 300 307 309 309 311 312 315 319 321 323 326 330 328 319 293 286 289 288 282 278 276 267 264 251 235 231 225 212 198 202 219 216 230 232 231 234 234 229 230 234 235 235
273 290 308 307 307 314 315 316 317 321 321 323 327 329 327 318 290 277 277 278 279 277 275 265 256 244 234 233 211 208 193 204 211 220 231 226 233 233 236 234 233 237 240
281 285 307 307 310 315 317 317 317 319 321 323 323 325 326 322 310 289 275 275 274 277 277 272 259 245 250 236 223 213 193 203 214 213 224 231 226 237 239 236 236 235 239
279 289 308 309 317 315 317 320 319 318 319 320 322 322 324 324 318 306 284 271 270 269 275 277 266 253 241 242 243 231 246 203 208 218 214 225 230 234 234 235 236 237 234
276 296 304 313 315 313 314 319 318 317 318 318 318 318 319 318 319 315 306 284 272 268 268 271 271 259 251 239 248 247 223 218 193 219 219 220 223 239 236 239 237 238 239
271 293 310 318 314 312 311 314 317 317 317 316 316 317 316 316 315 316 311 303 284 271 266 269 267 261 254 247 238 232 246 218 207 210 225 229 229 226 237 236 243 239 236
274 277 312 315 312 310 307 310 313 317 317 317 315 315 315 316 313 312 313 307 299 285 271 265 266 261 257 250 246 227 229 232 230 217 212 228 234 228 236 233 241 242 241
280 279 307 312 310 308 305 305 307 312 314 314 314 313 313 312 311 310 308 308 302 296 285 269 261 261 256 253 250 248 224 228 230 237 244 243 231 232 232 232 228 242 239
278 290 300 310 306 303 302 303 303 306 308 309 311 312 312 312 311 308 303 302 301 298 293 284 267 257 256 252 251 252 246 230 247 251 248 257 240 234 231 231 235 235 236
285 295 297 303 299 299 297 297 298 301 302 305 306 309 309 311 310 305 301 298 298 297 294 290 283 267 257 254 251 253 253 246 243 243 252 252 244 237 234 231 224 230 236
289 292 293 290 290 291 292 293 295 297 298 299 302 305 306 307 306 302 299 297 295 295 294 291 288 281 266 254 250 248 253 251 245 225 224 235 245 251 245 237 236 229 232
288 288 285 286 285 286 288 289 292 295 293 296 301 301 301 302 303 301 300 295 291 290 292 291 289 285 278 263 253 248 250 251 247 240 226 226 235 251 254 250 234 232 229
283 283 283 284 284 286 285 285 290 290 290 295 296 296 297 299 300 299 298 292 289 289 290 291 288 285 281 272 258 253 248 249 249 243 229 224 224 232 233 242 241 235 225
281 283 279 277 278 281 283 283 286 285 286 290 290 290 292 295 296 297 294 289 286 287 289 289 289 285 282 277 266 254 249 248 248 246 236 226 222 221 225 230 239 231 228
275 275 275 277 280 280 279 278 277 279 282 284 286 286 288 292 294 294 291 289 287 287 289 290 292 288 283 279 272 261 251 248 247 247 243 232 226 219 224 230 234 244 233
273 270 271 276 275 277 276 274 276 279 283 283 283 284 286 289 292 292 290 289 289 290 291 295 293 289 285 279 274 266 256 249 248 248 248 238 231 223 222 228 232 235 235
268 268 273 269 275 277 275 276 280 283 283 282 282 281 282 285 288 289 290 290 290 290 290 293 293 290 287 281 276 270 260 252 249 248 250 243 233 227 220 221 217 220 231
265 267 267 275 276 276 274 275 278 280 280 280 279 279 280 282 286 289 290 291 289 290 290 291 292 292 289 283 277 272 265 255 249 247 248 248 238 234 220 220 216 219 222
265 266 271 274 275 279 276 273 274 277 277 275 273 274 277 281 286 288 291 293 291 288 288 290 291 292 289 284 278 273 267 258 251 246 246 247 241 235 233 218 216 213 222
275 279 278 283 288 283 283 278 276 275 271 272 273 273 274 278 283 288 290 291 290 289 288 289 290 289 287 283 279 275 269 262 254 249 245 246 245 238 238 224 216 218 213
277 275 276 281 285 283 280 275 274 272 272 270 267 265 269 274 283 287 287 290 289 287 287 289 289 286 285 283 280 275 270 264 259 253 248 247 244 240 237 230 214 221 215
279 273 272 279 283 280 275 271 271 273 271 269 267 266 271 279 283 285 286 286 284 283 286 290 289 286 283 281 278 276 271 265 260 256 252 247 247 241 240 235 218 212 212
278 273 272 272 275 270 266 265 265 266 265 263 264 267 274 279 280 281 283 281 279 281 286 288 286 285 282 279 276 272 268 264 260 257 254 250 246 241 240 236 227 213 210
276 275 271 270 269 261 260 262 264 266 267 267 271 274 278 279 280 281 279 277 279 283 285 284 283 282 281 279 274 271 267 263 258 257 254 249 247 241 237 236 230 215 210
272 268 269 265 263 264 265 266 266 268 270 271 273 274 276 278 279 278 276 277 281 281 281 281 281 281 280 280 275 270 266 263 259 255 254 249 247 240 238 240 228 217 213